Voltar ao catálogo

COSMOS 2251 DEB

AtivoLEO
NORAD 35585·DEBRIS·🇷🇺 Russia

Lançado Jun 16, 1993 de Plesetsk Cosmodrome

Loading…

Próximas Passagens (próximas 24 horas)

TLE

EnvelhecendoSource: Space-Track

Época: Sep 12, 2026, 10:18 UTC

1 35585U 93036AMC 26255.42946152  .00000845  00000-0  63602-3 0  9997
2 35585  73.9682 251.1412 0303165 107.2134  40.8506 13.76072632678275

Acompanhe COSMOS 2251 DEB em tempo real com AllMySat

Download on the App Store